THY1ZG LTFM-LTAI

Flight info

Callsign THY1ZG
Flight time 0h 52m
Altitude 41000
Route RATVU UT35 BABSA
Aircraft A359/H-SDE2E3GHIJ3J4J5LM1ORWXY/LB1D1

Departure

Time 2026-02-17 12:32
Airport İstanbul Airport (LTFM)

Arrival

Time 2026-02-17 13:24
Airport Antalya International Airport (LTAI)
Time Latitude Longitude Altitude Speed Heading
2026-02-17 11:47 41.26802 28.74121 335 ft 0 kts 91°
2026-02-17 12:19 41.26802 28.74107 340 ft 3 kts 89°
2026-02-17 12:19 41.26801 28.74080 340 ft 3 kts 88°
2026-02-17 12:19 41.26800 28.74055 339 ft 3 kts 76°
2026-02-17 12:20 41.26793 28.74033 338 ft 3 kts 40°
2026-02-17 12:20 41.26776 28.74021 340 ft 3 kts
2026-02-17 12:20 41.26761 28.74019 335 ft 1 kts 359°
2026-02-17 12:20 41.26746 28.74020 338 ft 3 kts 359°
2026-02-17 12:21 41.26736 28.74020 334 ft 0 kts 359°
2026-02-17 12:23 41.26747 28.74020 340 ft 3 kts 360°
2026-02-17 12:23 41.26776 28.74020 340 ft 6 kts 359°
2026-02-17 12:23 41.26824 28.74019 338 ft 8 kts 359°
2026-02-17 12:24 41.26890 28.74018 335 ft 11 kts 359°
2026-02-17 12:24 41.26973 28.74016 336 ft 13 kts 358°
2026-02-17 12:24 41.27044 28.73967 335 ft 11 kts 292°
2026-02-17 12:24 41.27048 28.73853 335 ft 13 kts 269°
2026-02-17 12:25 41.27047 28.73719 335 ft 16 kts 269°
2026-02-17 12:25 41.27046 28.73566 335 ft 18 kts 269°
2026-02-17 12:25 41.27044 28.73396 340 ft 19 kts 269°
2026-02-17 12:25 41.27042 28.73221 340 ft 15 kts 268°
2026-02-17 12:26 41.27074 28.73117 340 ft 13 kts 329°
2026-02-17 12:26 41.27166 28.73092 335 ft 15 kts 358°
2026-02-17 12:26 41.27274 28.73085 339 ft 17 kts 357°
2026-02-17 12:27 41.27526 28.73081 339 ft 18 kts 357°
2026-02-17 12:27 41.27636 28.73002 337 ft 19 kts 332°
2026-02-17 12:27 41.27768 28.72974 339 ft 20 kts 360°
2026-02-17 12:27 41.27915 28.72965 337 ft 22 kts 357°
2026-02-17 12:28 41.28072 28.72955 336 ft 23 kts 358°
2026-02-17 12:28 41.28238 28.72948 335 ft 25 kts 359°
2026-02-17 12:28 41.28416 28.72949 335 ft 26 kts
2026-02-17 12:28 41.28603 28.72953 335 ft 28 kts 359°
2026-02-17 12:29 41.28796 28.72946 335 ft 26 kts 358°
2026-02-17 12:29 41.28983 28.72940 336 ft 27 kts 358°
2026-02-17 12:29 41.29178 28.72932 338 ft 28 kts 358°
2026-02-17 12:29 41.29373 28.72924 336 ft 27 kts 359°
2026-02-17 12:30 41.29485 28.72888 336 ft 9 kts 288°
2026-02-17 12:30 41.29491 28.72805 335 ft 11 kts 271°
2026-02-17 12:30 41.29492 28.72696 335 ft 12 kts 270°
2026-02-17 12:31 41.29488 28.72493 339 ft 10 kts 258°
2026-02-17 12:31 41.29446 28.72456 335 ft 7 kts 193°
2026-02-17 12:31 41.29371 28.72451 337 ft 32 kts 180°
2026-02-17 12:31 41.28907 28.72455 339 ft 101 kts 180°
2026-02-17 12:32 41.28002 28.72504 384 ft 155 kts 183°
2026-02-17 12:32 41.26878 28.72598 952 ft 163 kts 179°
2026-02-17 12:32 41.25776 28.72812 1874 ft 153 kts 182°
2026-02-17 12:32 41.24754 28.72754 2727 ft 139 kts 186°
2026-02-17 12:33 41.23805 28.72696 3202 ft 140 kts 187°
2026-02-17 12:33 41.22770 28.72657 3407 ft 159 kts 186°
2026-02-17 12:33 41.21591 28.72641 3579 ft 181 kts 186°
2026-02-17 12:33 41.20268 28.72633 3744 ft 205 kts 185°
2026-02-17 12:34 41.18761 28.72569 4087 ft 221 kts 193°
2026-02-17 12:34 41.17374 28.71732 4565 ft 231 kts 219°
2026-02-17 12:34 41.16137 28.70262 4977 ft 244 kts 225°
2026-02-17 12:35 41.13656 28.67121 6244 ft 247 kts 220°
2026-02-17 12:35 41.12191 28.65962 6850 ft 246 kts 203°
2026-02-17 12:35 41.10507 28.65579 7475 ft 249 kts 185°
2026-02-17 12:35 41.08782 28.65765 8133 ft 250 kts 179°
2026-02-17 12:36 41.07040 28.66068 8685 ft 255 kts 178°
2026-02-17 12:36 41.05268 28.66392 9259 ft 259 kts 178°
2026-02-17 12:36 41.03474 28.66719 9858 ft 261 kts 179°
2026-02-17 12:36 41.01651 28.67042 10310 ft 270 kts 179°
2026-02-17 12:37 40.99732 28.67370 10527 ft 286 kts 179°
2026-02-17 12:37 40.97707 28.67713 10715 ft 301 kts 179°
2026-02-17 12:37 40.95579 28.68077 10920 ft 315 kts 179°
2026-02-17 12:37 40.93371 28.68479 11125 ft 328 kts 176°
2026-02-17 12:38 40.91117 28.69225 11412 ft 339 kts 166°
2026-02-17 12:38 40.88981 28.70623 11882 ft 346 kts 156°
2026-02-17 12:38 40.86936 28.72326 12364 ft 350 kts 154°
2026-02-17 12:39 40.82801 28.75858 13243 ft 357 kts 154°
2026-02-17 12:39 40.80705 28.77638 13676 ft 360 kts 155°
2026-02-17 12:39 40.78589 28.79426 14070 ft 363 kts 154°
2026-02-17 12:39 40.76453 28.81229 14529 ft 365 kts 155°
2026-02-17 12:40 40.74303 28.83044 14960 ft 368 kts 154°
2026-02-17 12:40 40.72138 28.84866 15376 ft 371 kts 155°
2026-02-17 12:40 40.69982 28.86676 15793 ft 373 kts 155°
2026-02-17 12:40 40.67787 28.88517 16203 ft 376 kts 155°
2026-02-17 12:41 40.65574 28.90372 16617 ft 378 kts 155°
2026-02-17 12:41 40.63341 28.92241 17005 ft 381 kts 155°
2026-02-17 12:41 40.61097 28.94120 17390 ft 383 kts 155°
2026-02-17 12:41 40.58841 28.96006 17759 ft 386 kts 155°
2026-02-17 12:42 40.56571 28.97903 18131 ft 388 kts 155°
2026-02-17 12:42 40.54283 28.99814 18509 ft 390 kts 155°
2026-02-17 12:42 40.51989 29.01728 18857 ft 392 kts 155°
2026-02-17 12:43 40.47363 29.05584 19633 ft 395 kts 155°
2026-02-17 12:43 40.45035 29.07520 19961 ft 397 kts 155°
2026-02-17 12:43 40.42694 29.09467 20280 ft 399 kts 155°
2026-02-17 12:43 40.40343 29.11422 20623 ft 401 kts 155°
2026-02-17 12:44 40.37986 29.13381 20949 ft 402 kts 155°
2026-02-17 12:44 40.35598 29.15304 21297 ft 402 kts 158°
2026-02-17 12:44 40.33091 29.16866 21628 ft 399 kts 165°
2026-02-17 12:44 40.30496 29.18168 21872 ft 401 kts 167°
2026-02-17 12:45 40.27876 29.19435 22189 ft 401 kts 167°
2026-02-17 12:45 40.25247 29.20702 22483 ft 403 kts 167°
2026-02-17 12:45 40.22612 29.21977 22783 ft 405 kts 167°
2026-02-17 12:45 40.19965 29.23260 23055 ft 406 kts 167°
2026-02-17 12:46 40.17347 29.24531 23310 ft 408 kts 167°
2026-02-17 12:46 40.14680 29.25825 23573 ft 409 kts 167°
2026-02-17 12:46 40.12010 29.27121 23834 ft 410 kts 167°
2026-02-17 12:47 40.06640 29.29725 24314 ft 413 kts 167°
2026-02-17 12:47 40.03938 29.31032 24577 ft 415 kts 167°
2026-02-17 12:47 40.01235 29.32340 24842 ft 415 kts 167°
2026-02-17 12:47 39.98520 29.33652 25103 ft 416 kts 167°
2026-02-17 12:48 39.95794 29.34967 25310 ft 419 kts 167°
2026-02-17 12:48 39.93054 29.36290 25587 ft 420 kts 167°
2026-02-17 12:48 39.90316 29.37614 25868 ft 422 kts 167°
2026-02-17 12:48 39.87567 29.38976 26129 ft 424 kts 167°
2026-02-17 12:49 39.84814 29.40395 26429 ft 426 kts 166°
2026-02-17 12:49 39.82066 29.41857 26769 ft 427 kts 165°
2026-02-17 12:49 39.79326 29.43345 27075 ft 428 kts 165°
2026-02-17 12:49 39.76579 29.44852 27401 ft 430 kts 165°
2026-02-17 12:50 39.73812 29.46374 27704 ft 431 kts 165°
2026-02-17 12:50 39.71045 29.47896 27985 ft 434 kts 165°
2026-02-17 12:50 39.68256 29.49429 28307 ft 435 kts 165°
2026-02-17 12:51 39.62902 29.52342 28931 ft 437 kts 166°
2026-02-17 12:51 39.60029 29.53819 29256 ft 438 kts 167°
2026-02-17 12:51 39.57182 29.55239 29549 ft 440 kts 167°
2026-02-17 12:51 39.54306 29.56656 29868 ft 442 kts 167°
2026-02-17 12:52 39.51428 29.58072 30174 ft 443 kts 167°
2026-02-17 12:52 39.48541 29.59495 30432 ft 446 kts 167°
2026-02-17 12:52 39.45671 29.60913 30678 ft 448 kts 167°
2026-02-17 12:52 39.42711 29.62382 30948 ft 450 kts 167°
2026-02-17 12:53 39.39816 29.63819 31174 ft 454 kts 167°
2026-02-17 12:53 39.36860 29.65289 31403 ft 456 kts 167°
2026-02-17 12:53 39.33898 29.66761 31618 ft 458 kts 167°
2026-02-17 12:53 39.30912 29.68243 31823 ft 460 kts 168°
2026-02-17 12:54 39.27915 29.69728 32003 ft 462 kts 168°
2026-02-17 12:54 39.24908 29.71215 32169 ft 464 kts 168°
2026-02-17 12:54 39.21880 29.72712 32333 ft 467 kts 168°
2026-02-17 12:55 39.16826 29.75209 32616 ft 470 kts 168°
2026-02-17 12:55 39.13768 29.76717 32803 ft 470 kts 168°
2026-02-17 12:55 39.10712 29.78223 33012 ft 471 kts 168°
2026-02-17 12:55 39.07652 29.79732 33221 ft 471 kts 168°
2026-02-17 12:56 39.04594 29.81233 33362 ft 472 kts 169°
2026-02-17 12:56 39.01521 29.82741 33574 ft 472 kts 169°
2026-02-17 12:56 38.98453 29.84248 33793 ft 472 kts 169°
2026-02-17 12:56 38.95388 29.85745 33913 ft 473 kts 169°
2026-02-17 12:57 38.92306 29.87251 34101 ft 473 kts 169°
2026-02-17 12:57 38.89232 29.88754 34324 ft 473 kts 169°
2026-02-17 12:57 38.86148 29.90239 34513 ft 473 kts 170°
2026-02-17 12:57 38.83063 29.91707 34679 ft 473 kts 170°
2026-02-17 12:58 38.79980 29.93165 34717 ft 473 kts 170°
2026-02-17 12:58 38.73798 29.96086 34720 ft 474 kts 170°
2026-02-17 12:59 38.67642 29.99001 34429 ft 466 kts 170°
2026-02-17 12:59 38.64612 30.00438 33741 ft 465 kts 170°
2026-02-17 12:59 38.61552 30.01882 33021 ft 472 kts 170°
2026-02-17 12:59 38.58462 30.03346 32378 ft 476 kts 169°
2026-02-17 13:00 38.55351 30.04831 31746 ft 477 kts 168°
2026-02-17 13:00 38.52246 30.06321 31120 ft 477 kts 168°
2026-02-17 13:00 38.49136 30.07816 30492 ft 477 kts 168°
2026-02-17 13:00 38.46033 30.09304 29862 ft 477 kts 167°
2026-02-17 13:01 38.42922 30.10797 29235 ft 476 kts 167°
2026-02-17 13:01 38.39832 30.12277 28608 ft 473 kts 167°
2026-02-17 13:01 38.36758 30.13745 27965 ft 470 kts 167°
2026-02-17 13:01 38.33713 30.15190 27292 ft 465 kts 167°
2026-02-17 13:02 38.30739 30.16584 26630 ft 459 kts 167°
2026-02-17 13:02 38.27713 30.17987 25946 ft 453 kts 168°
2026-02-17 13:02 38.24818 30.19328 25291 ft 447 kts 167°
2026-02-17 13:03 38.19084 30.22086 24123 ft 432 kts 167°
2026-02-17 13:03 38.16311 30.23391 23739 ft 420 kts 168°
2026-02-17 13:03 38.13603 30.24644 23342 ft 408 kts 168°
2026-02-17 13:03 38.10968 30.25851 22949 ft 398 kts 168°
2026-02-17 13:04 38.08394 30.27023 22560 ft 387 kts 169°
2026-02-17 13:04 38.05900 30.28156 22302 ft 375 kts 169°
2026-02-17 13:04 38.03488 30.29252 22092 ft 361 kts 169°
2026-02-17 13:04 38.01224 30.30556 21746 ft 360 kts 159°
2026-02-17 13:05 37.99180 30.32378 21494 ft 355 kts 153°
2026-02-17 13:05 37.97267 30.34276 21293 ft 344 kts 153°
2026-02-17 13:05 37.95299 30.35878 20945 ft 336 kts 161°
2026-02-17 13:05 37.93194 30.37268 20529 ft 341 kts 163°
2026-02-17 13:06 37.91083 30.38594 20096 ft 336 kts 164°
2026-02-17 13:06 37.89006 30.39907 19632 ft 333 kts 163°
2026-02-17 13:06 37.86975 30.41226 19164 ft 331 kts 162°
2026-02-17 13:07 37.82922 30.43960 18216 ft 326 kts 161°
2026-02-17 13:07 37.80971 30.45309 17744 ft 323 kts 161°
2026-02-17 13:07 37.79017 30.46667 17273 ft 319 kts 161°
2026-02-17 13:07 37.77079 30.48016 16799 ft 316 kts 161°
2026-02-17 13:08 37.75160 30.49351 16326 ft 313 kts 161°
2026-02-17 13:08 37.73266 30.50668 15856 ft 309 kts 161°
2026-02-17 13:08 37.71387 30.51977 15373 ft 306 kts 161°
2026-02-17 13:08 37.69536 30.53262 14906 ft 303 kts 161°
2026-02-17 13:09 37.67699 30.54539 14442 ft 300 kts 161°
2026-02-17 13:09 37.65872 30.55800 13971 ft 299 kts 162°
2026-02-17 13:09 37.64055 30.57049 13592 ft 295 kts 162°
2026-02-17 13:09 37.62262 30.58282 13142 ft 293 kts 161°
2026-02-17 13:10 37.60473 30.59510 12647 ft 291 kts 161°
2026-02-17 13:10 37.58706 30.60733 12161 ft 290 kts 161°
2026-02-17 13:10 37.56943 30.61949 11700 ft 288 kts 161°
2026-02-17 13:11 37.53451 30.64327 10779 ft 282 kts 160°
2026-02-17 13:11 37.51732 30.65504 10270 ft 281 kts 160°
2026-02-17 13:11 37.50031 30.66673 9845 ft 277 kts 160°
2026-02-17 13:11 37.48347 30.67832 9386 ft 275 kts 160°
2026-02-17 13:12 37.46675 30.68983 9033 ft 272 kts 159°
2026-02-17 13:12 37.45042 30.70111 8965 ft 260 kts 159°
2026-02-17 13:12 37.43520 30.71184 8957 ft 242 kts 159°
2026-02-17 13:12 37.42076 30.72211 8972 ft 238 kts 159°
2026-02-17 13:13 37.40639 30.73218 8860 ft 234 kts 159°
2026-02-17 13:13 37.39208 30.74213 8447 ft 236 kts 160°
2026-02-17 13:13 37.37760 30.75208 8026 ft 237 kts 160°
2026-02-17 13:13 37.36317 30.76194 7673 ft 237 kts 159°
2026-02-17 13:14 37.35049 30.77538 7119 ft 247 kts 132°
2026-02-17 13:14 37.34316 30.79516 6776 ft 248 kts 121°
2026-02-17 13:14 37.33423 30.81284 6431 ft 234 kts 147°
2026-02-17 13:15 37.30461 30.82586 5639 ft 228 kts 179°
2026-02-17 13:15 37.28891 30.82672 5365 ft 225 kts 186°
2026-02-17 13:15 37.27332 30.82650 5053 ft 223 kts 185°
2026-02-17 13:15 37.25784 30.82630 4731 ft 222 kts 186°
2026-02-17 13:16 37.24245 30.82622 4408 ft 220 kts 186°
2026-02-17 13:16 37.22721 30.82618 4093 ft 217 kts 186°
2026-02-17 13:16 37.21253 30.82625 3991 ft 203 kts 187°
2026-02-17 13:16 37.19886 30.82637 3990 ft 198 kts 186°
2026-02-17 13:17 37.18513 30.82646 3982 ft 197 kts 186°
2026-02-17 13:17 37.17122 30.82647 3993 ft 198 kts 187°
2026-02-17 13:17 37.15754 30.82547 3941 ft 195 kts 190°
2026-02-17 13:17 37.14432 30.82449 3622 ft 193 kts 188°
2026-02-17 13:18 37.13073 30.82365 3417 ft 190 kts 190°
2026-02-17 13:18 37.11827 30.82227 3394 ft 175 kts 193°
2026-02-17 13:18 37.10640 30.82039 3430 ft 171 kts 195°
2026-02-17 13:19 37.08253 30.81633 3390 ft 175 kts 193°
2026-02-17 13:19 37.07066 30.81536 3242 ft 166 kts 181°
2026-02-17 13:19 37.05937 30.81503 3038 ft 159 kts 185°
2026-02-17 13:19 37.04853 30.81350 2807 ft 154 kts 187°
2026-02-17 13:20 37.03804 30.81187 2593 ft 150 kts 186°
2026-02-17 13:20 37.02769 30.81045 2394 ft 149 kts 185°
2026-02-17 13:20 37.01746 30.80905 2201 ft 147 kts 184°
2026-02-17 13:20 37.00734 30.80764 2001 ft 146 kts 183°
2026-02-17 13:21 36.99732 30.80625 1804 ft 143 kts 182°
2026-02-17 13:21 36.98783 30.80495 1623 ft 132 kts 182°
2026-02-17 13:21 36.97911 30.80374 1451 ft 123 kts 179°
2026-02-17 13:21 36.97054 30.80256 1294 ft 125 kts 178°
2026-02-17 13:22 36.96182 30.80141 1144 ft 126 kts 179°
2026-02-17 13:22 36.95295 30.80014 872 ft 129 kts 179°
2026-02-17 13:22 36.94431 30.79881 749 ft 123 kts 180°
2026-02-17 13:23 36.92725 30.79644 446 ft 122 kts 185°
2026-02-17 13:23 36.91887 30.79533 302 ft 122 kts 185°
2026-02-17 13:23 36.91042 30.79416 205 ft 119 kts 185°
2026-02-17 13:23 36.90340 30.79317 206 ft 82 kts 187°
2026-02-17 13:24 36.89892 30.79255 202 ft 51 kts 186°
2026-02-17 13:24 36.89694 30.79230 203 ft 21 kts 183°
2026-02-17 13:24 36.89559 30.79252 210 ft 18 kts 159°
2026-02-17 13:24 36.89463 30.79303 211 ft 11 kts 156°
2026-02-17 13:25 36.89417 30.79355 209 ft 8 kts 103°
2026-02-17 13:25 36.89432 30.79389 202 ft 3 kts 22°
2026-02-17 13:25 36.89459 30.79401 198 ft 5 kts 20°
2026-02-17 13:25 36.89497 30.79418 210 ft 7 kts 20°
2026-02-17 13:26 36.89545 30.79432 198 ft 8 kts
2026-02-17 13:26 36.89604 30.79437 202 ft 10 kts
2026-02-17 13:26 36.89679 30.79445 210 ft 12 kts
2026-02-17 13:27 36.89874 30.79466 209 ft 16 kts
2026-02-17 13:27 36.89986 30.79485 208 ft 17 kts
2026-02-17 13:27 36.90109 30.79501 197 ft 19 kts
2026-02-17 13:27 36.90239 30.79519 197 ft 20 kts
2026-02-17 13:28 36.90379 30.79537 208 ft 20 kts
2026-02-17 13:28 36.90523 30.79556 201 ft 21 kts
2026-02-17 13:28 36.90646 30.79640 209 ft 20 kts 37°
2026-02-17 13:28 36.90764 30.79726 201 ft 20 kts 12°
2026-02-17 13:29 36.90887 30.79781 197 ft 15 kts 57°
2026-02-17 13:29 36.90947 30.79839 211 ft 10 kts 17°
2026-02-17 13:29 36.91003 30.79843 199 ft 5 kts 330°
2026-02-17 13:29 36.91016 30.79805 200 ft 5 kts 284°
2026-02-17 13:30 36.91018 30.79787 211 ft 1 kts 277°
2026-02-17 13:30 36.91019 30.79779 197 ft 1 kts 277°
2026-02-17 13:30 36.91020 30.79767 197 ft 1 kts 276°